Simultaneous Nadir Overpasses (SNOs) Predictions

Prediction of SNOs between AURA and NPP Satellite Orbit:

Table of predicted SNOs for the next 14.0 days since TLE Epoch: 11/13/2020
Index Date (AURA) Time (AURA) Lat,Lon (AURA) SZA (AURA ) Date (NPP) Time (NPP) Lat,Lon (NPP) SZA (NPP ) Distance(km) Time Diff (sec)
1 11/14/2020 03:41:26 -79.57,-158.16 70.37 11/14/2020 03:41:20 -79.57,-158.19 70.36 0.72 6
2 11/14/2020 04:30:47 79.75, 10.84 109.39 11/14/2020 04:31:59 79.75, 10.69 109.36 2.94 72
3 11/16/2020 19:08:30 79.47, 149.41 110.44 11/16/2020 19:07:31 79.48, 149.51 110.46 2.11 59
4 11/16/2020 19:57:53 -79.63, -41.86 69.77 11/16/2020 19:58:12 -79.62, -42.00 69.76 3.11 19
5 11/19/2020 11:24:57 79.53, -94.34 111.01 11/19/2020 11:24:23 79.52, -94.32 111.03 0.49 34
6 11/19/2020 12:14:18 -79.75, 74.95 69.30 11/19/2020 12:15:01 -79.76, 75.03 69.34 1.67 43
7 11/22/2020 03:41:24 79.57, 21.87 111.56 11/22/2020 03:41:15 79.57, 21.84 111.57 0.49 9
8 11/22/2020 04:30:45 -79.80,-168.81 68.76 11/22/2020 04:31:53 -79.81,-168.77 68.81 0.85 68
9 11/24/2020 19:08:29 -79.43, -30.85 67.70 11/24/2020 19:07:27 -79.44, -30.78 67.66 1.60 62
10 11/24/2020 19:57:49 79.65, 138.31 112.02 11/24/2020 19:58:05 79.65, 138.28 112.02 0.67 16
11 11/27/2020 11:24:54 -79.55, 85.82 67.32 11/27/2020 11:24:17 -79.55, 85.92 67.31 2.14 37
